Location: Home
(42.5358°N, 72.7383°W)
Time: 06:52:01
(UTC-05:00)

Explorer 11/Cluster Stage 4 - Pass Details

Date: 08 December 2021
Orbit: 467 x 1255 km, 28.8° (Epoch: 25 January)

Event Time Altitude Azimuth Distance (km) Brightness Sun altitude
Rises 00:53:49 0° 231° (SW) 3,061 - -65.3°
Reaches altitude 10° 00:56:38 10° 214° (SSW) 2,285 - -65.0°
Maximum altitude 01:00:31 20° 168° (SSE) 1,882 - -64.5°
Drops below altitude 10° 01:04:59 10° 124° (SE) 2,689 - -63.9°
Sets 01:08:39 0° 109° (ESE) 3,797 - -63.4°
